Location: Darmstadt
(49.8710°N, 8.6490°E)
Time: 12:07:51
(UTC+01:00)

ISS - Visible Passes

Search period start: 15 December 2019 00:00
Search period end: 25 December 2019 00:00
Orbit: 411 x 421 km, 51.6° (Epoch: 15 December)

Date Brightness Start Highest point End Pass type
(mag) Time Alt. Az. Time Alt. Az. Time Alt. Az.
20 Dec 0.0 07:10:25 10° SE 07:10:58 10° SE 07:11:32 10° SE visible
22 Dec -1.1 07:07:30 10° SSW 07:10:09 22° SE 07:12:50 10° E visible
23 Dec -0.8 06:19:47 10° S 06:21:46 15° SE 06:23:46 10° ESE visible
24 Dec -2.6 07:06:18 10° SW 07:09:28 44° SSE 07:12:40 10° ENE visible
